Regional Weather Roundup
Issued by NWS

Home | Current Version | Previous Version | Text Only | Print | Product List | Glossary On
Versions: 1 2 3 4 5 6 7 8 9 10 11 12 13 14 15 16 17 18 19 20 21 22 23 24 25 26 27 28 29 30 31 32 33 34 35 36 37 38 39 40 41 42 43 44 45 46 47 48 49 50
000
ASUS44 KFWD 290715
RWRTX
NORTH TEXAS HOURLY WEATHER ROUNDUP
NATIONAL WEATHER SERVICE FORT WORTH TX
200 AM CDT MON MAY 29 2017

NOTE: "FAIR" INDICATES FEW OR NO CLOUDS BELOW 12,000 FEET WITH NO
SIGNIFICANT WEATHER AND/OR OBSTRUCTIONS TO VISIBILITY.

TXZ118-119-290800-
DALLAS/FORT WORTH METROPLEX

CITY           SKY/WX    TMP DP  RH WIND       PRES   REMARKS
DFW AIRPORT    CLOUDY    73  69  87 W5        30.02S
DALLAS LOVE    CLOUDY    73  69  87 CALM      30.03S
FTW MEACHAM    CLOUDY    71  69  93 CALM      30.04R
DAL-EXECUTIVE  CLOUDY    68  68 100 NW5       30.03S
FTW-ALLIANCE   CLOUDY    65  65 100 SW3       30.04S
FTW-NAS-JRB    CLOUDY    72  67  84 N5        30.04S
FTW-SPINKS     CLOUDY    67  66  94 N3        30.05F FOG
ARLINGTON      CLOUDY    68  66  93 CALM      30.04S
GRAND PRAIRIE  CLOUDY    72  71  97 CALM      30.05S
ADDISON        CLOUDY    70  68  94 CALM      30.06R
MESQUITE       CLOUDY    69  68  98 CALM      30.04S
LANCASTER      CLOUDY    68  67  95 CALM      30.04S
$$

TXZ091>094-102>105-117-120-121-131>134-290800-
NORTH CENTRAL TEXAS

CITY           SKY/WX    TMP DP  RH WIND       PRES   REMARKS
SHRMAN/DENISON CLOUDY    65  63  93 CALM      30.06R
GAINESVILLE    CLOUDY    65  62  89 CALM      30.07S
BOWIE          CLOUDY    65  65 100 CALM      30.07S
BRIDGEPORT     CLOUDY    64  64 100 CALM      30.07S
DECATUR        MOCLDY    69  63  80 CALM      30.07S
DENTON         CLOUDY    66  65  96 CALM      30.04S
MCKINNEY       CLOUDY    66  65  96 NW3       30.04R
BONHAM         CLOUDY    63  63 100 NW3       30.04R
GREENVILLE     CLOUDY    72  70  94 CALM      30.03F
ROCKWALL       MOCLDY    70  70 100 CALM      30.04S
TERRELL        CLOUDY    71  69  93 CALM      30.03S
WAXAHACHIE     CLOUDY    68  68 100 CALM      30.05R FOG
CLEBURNE         N/A     70  70 100 N8        30.05S
GRANBURY       CLOUDY    69  66  90 N3        30.05S
$$

TXZ083>090-098>101-113>116-127>130-139>142-154-155-290800-
WESTERN NORTH TEXAS

CITY           SKY/WX    TMP DP  RH WIND       PRES   REMARKS
WICHITA FALLS  CLOUDY    66  55  67 NW7       30.07R
WF-KICKAPOO    CLOUDY    68  58  71 N5        30.10R
VERNON         CLOUDY    65  42  43 CALM      30.09F
ABILENE        CLOUDY    61  61 100 N5        30.08F
ABILENE-DYESS  CLOUDY    64  62  96 NW6       30.06F
GRAHAM         CLOUDY    64  64 100 CALM      30.06S
BRECKENRIDGE   CLOUDY    67  65  91 N5        30.06F
CISCO          CLOUDY    64  63  94 N5        30.07F
EASTLAND       CLOUDY    64  62  96 N5        30.05F
RANGER         CLOUDY   N/A N/A N/A N5        30.06F
MINERAL WELLS  CLOUDY    65  63  93 N3        30.04S
STEPHENVILLE   CLOUDY    69  65  85 N5        30.06F
COMANCHE       CLOUDY    67  67 100 N5        30.04S
BROWNWOOD      CLOUDY    68  64  88 N5        30.03F
COLEMAN        CLOUDY    68  62  82 N6        30.04F
$$

TXZ143>147-156>162-174-175-290800-
CENTRAL TEXAS

CITY           SKY/WX    TMP DP  RH WIND       PRES   REMARKS
WACO           CLOUDY    70  69  97 CALM      29.98S
WACO-MCGREGOR  CLOUDY    70  69  97 N5        29.98F
HILLSBORO      LGT RAIN  71  69  94 N6        30.01S
CORSICANA      CLOUDY    71  69  93 N7        30.00F
MEXIA          CLOUDY    69  69  99 NE8       29.97F
HEARNE         CLOUDY    69  69 100 SE6       29.97S
CAMERON        CLOUDY    69  67  94 CALM      29.96R
TEMPLE         CLOUDY    67  66  97 N6        29.97F
KILLEEN        CLOUDY    67  66  97 N10       29.97F
KILLEEN-SKYLRK CLOUDY    68  67  96 N6        29.98F
FORT HOOD      CLOUDY    66  66 100 N8        29.95F
HAMILTON       CLOUDY    68  68 100 N7        30.02S
LAMPASAS       CLOUDY    71  70  97 N3        29.99F
$$

TXZ095>097-106>112-122>126-135>138-148>153-164>167-290800-
EAST TEXAS

CITY           SKY/WX    TMP DP  RH WIND       PRES   REMARKS
PARIS          CLOUDY    66  61  82 CALM      30.03R
SULPHUR SPRNGS CLOUDY    71  70  99 NW3       30.04S
MOUNT PLEASANT CLOUDY    70  70 100 SW7       30.03S
GILMER         CLOUDY    68  66  96 S5        30.02F
MINEOLA        CLOUDY    70  70 100 CALM      30.02F
TYLER          LGT RAIN  70  69  97 CALM      30.01F
LONGVIEW       CLOUDY   N/A N/A N/A SW3       30.01F
MARSHALL       CLOUDY    65  63  91 SW3       30.03R
ATHENS         CLOUDY    68  68 100 CALM      29.99F
PALESTINE      CLOUDY    69  69 100 CALM      30.02R
JACKSONVILLE   LGT RAIN  67  67 100 NE6       30.01F
HENDERSON      LGT RAIN N/A N/A N/A CALM      30.01F
CENTER         LGT RAIN  71  70  96 S7        30.00S
NACOGDOCHES    CLOUDY    68  64  88 SE8       29.98F
LUFKIN         LGT RAIN  67  67 100 SE9       29.97F
$$

SUPPLEMENTAL OBSERVATIONS (NWS FORT WORTH AREA)

CITY           SKY/WX    TMP DP  RH WIND       PRES   REMARKS
DENISON DAM      N/A     70  64  83 CALM        N/A
CADDO GRASSLND   N/A     64  61  88 CALM        N/A
PAT MAYSE LAKE   N/A     66  64  94 N1          N/A
GREENVILLE       N/A     68  64  88 NW3         N/A
CEDAR HILL       N/A     68  64  88 CALM        N/A
LBJ GRASSLAND    N/A     68  63  83 NE1         N/A
POSSUM KINGDOM   N/A     66  61  82 NW2         N/A
GRANBURY         N/A     68  64  88 N3          N/A
COMANCHE         N/A     66  63  88 NW6         N/A
MCGREGOR         N/A     70  68  94 NE5         N/A
TEMPLE           N/A     70  66  88 VRB2G14     N/A
LAKE LIMESTONE   N/A     70  66  88 E7          N/A
ATHENS           N/A     70  66  88 N1          N/A
$$

SUPPLEMENTAL OBSERVATIONS (NWS NORMAN AREA)

CITY           SKY/WX    TMP DP  RH WIND       PRES   REMARKS
GOODLETT         N/A     61  42  49 S5        30.10F
ODELL            N/A     63  45  51 E7        30.10F
CROWELL          N/A     66  45  45 E5        30.11S
KNOX CITY        N/A     63  44  49 E5        30.11S
SEYMOUR          N/A     62  49  61 N6        30.10S
MILLERS CREEK    N/A     63  48  59 NE1         N/A
$$

SUPPLEMENTAL OBSERVATIONS (NWS SAN ANGELO AREA)

CITY           SKY/WX    TMP DP  RH WIND       PRES   REMARKS
WEINERT          N/A     62  46  56 NE2       30.11S
HASKELL          N/A     66  45  46 NE5       30.10F
THROCKMORTON     N/A     65  58  78 W2        30.09F
STAMFORD         N/A     65  55  67 N5        30.10F
CLYDE            N/A     63  61  92 E2        30.09F
HAMBY            N/A     63  59  88 N3          N/A
IVIE RESERVOIR   N/A     66  61  82 S2          N/A
COLORADO BEND    N/A     66  64  94 VRB3        N/A
$$

SUPPLEMENTAL OBSERVATIONS (NWS SHREVEPORT AREA)

CITY           SKY/WX    TMP DP  RH WIND       PRES   REMARKS
CLARKSVILLE      N/A     68  66  94 CALM        N/A
TEXARKANA        N/A     70  68  94 CALM        N/A
LINDEN           N/A     70  66  88 SW3         N/A
CADDO LAKE       N/A     66  64  94 NW1         N/A
GILMER           N/A     68  64  88 SW5         N/A
HENDERSON        N/A     66  64  94 E2G13       N/A
LUFKIN           N/A     68  66  94 MISG        N/A
N SABINE NF      N/A     66  64  94 MISG        N/A
S SABINE NF      N/A     66  64  94 SE2         N/A
$$

SUPPLEMENTAL OBSERVATIONS ARE A COLLECTION OF AUTOMATED INSTRUMENTS
THAT ARE MAINTAINED BY A VARIETY OF FEDERAL AND STATE AGENCIES.
CERTAIN ELEMENTS...SUCH AS HUMIDITY VALUES AND SUSTAINED WIND
SPEEDS...MAY BE APPROXIMATED.




USA.gov is the U.S. government's official web portal to all federal, state and local government web resources and services.